Weather in Khetolambina

Russia / Republic of Karelia     66°21′28″N   33°16′45″E
temp.,
°C
wind,
m/s
gust,
m/s
humid.,
%
clouds,
%
prec.,
mm/h
press.,
hPa
HPBL,
m
4 march, thu
thu400:00−9nw369428 0.0 998126
03:00−10wnw369350 0.0 999136
06:00−9wnw4109193 0.0 998302
09:00−9nw3109090 0.0 999420
12:00−6n359494 0.2 999405
15:00−6ne369398 1.0 1000585
18:00−10nw128998 0.1 100221
21:00−11w239369 0.1 100347
5 march, fri
fri500:00−13nnw239488 0.1 100424
03:00−14nnw239685 0.1 100642
06:00−15nw239674 0.0 100727
09:00−15nw229674 0.0 100841
12:00−10nw239334 0.0 1009225
15:00−7wnw368746 0.0 1010491
18:00−10w349228 0.0 101092
21:00−11w389340 0.0 1011152
6 march, sat
sat600:00−12w36940 0.0 1010116
03:00−14w34946 0.0 100977
06:00−14sw239462 0.0 100753
09:00−14ssw259347 0.0 1004111
12:00−10s368874 0.0 1001252
15:00−8sse5118687 0.0 996461
18:00−9se61291100 0.1 990618
21:00−8ese61392100 0.7 987802
7 march, sun
sun700:00−8ese71492100 0.9 986858
03:00−9e71491100 1.3 988793
06:00−11ene81493100 0.9 991833
09:00−11ene71293100 1.8 994864
12:00−13ne71289100 0.4 999691
15:00−13ne61289100 0.5 1003702
18:00−15nne51288100 0.0 1006608
21:00−18nne4129070 0.0 1009480
8 march, mon
mon800:00−19nne3119314 0.0 1011348
03:00−20n389718 0.0 1013158
06:00−22n239856 0.0 101464
09:00−21n249856 0.0 1016106
12:00−16n239368 0.0 1017256
15:00−13nnw128663 0.0 1018316
18:00−16w129313 0.0 101820
21:00−18sw23917 0.0 101926